観測年月日,2015/10/15,,,
観測者,田寺　優香,,,
観測地点,18,,,
温度計番号,A034,,,
,,,,
時刻,気温,風向,風速,備考
 15:00:00,   24.721424629436779     
 15:01:00,   24.414197394899244     
 15:02:00,   24.311788316720065     
 15:03:00,   23.799742925824173     
 15:04:00,   23.492515691286641     
 15:05:00,   23.185288456749102     
 15:06:00,   23.185288456749102     
 15:07:00,   22.878061222211567     
 15:08:00,   22.570833987674032     
 15:09:00,   22.775652144032389     
 15:10:00,   22.673243065853214     
 15:11:00,   22.775652144032389     
 15:12:00,   22.878061222211567     
 15:13:00,   22.878061222211567     
 15:14:00,   22.673243065853214     
 15:15:00,   22.878061222211567     
 15:16:00,   22.878061222211567     
 15:17:00,   22.980470300390749     
 15:18:00,   22.775652144032389     
 15:19:00,   22.775652144032389     
 15:20:00,   22.673243065853214     
 15:21:00,   22.570833987674032     
 15:22:00,   22.570833987674032     
 15:23:00,   22.673243065853214     
 15:24:00,   22.570833987674032     
 15:25:00,   22.468424909494857     
 15:26:00,   22.570833987674032     
 15:27:00,   22.468424909494857     
 15:28:00,   22.468424909494857     
 15:29:00,   22.366015831315675     
 15:30:00,   22.366015831315675     
 15:31:00,   22.366015831315675     
 15:32:00,   22.263606753136497     
 15:33:00,   22.263606753136497     
 15:34:00,   22.161197674957322     
 15:35:00,   22.161197674957322     
 15:36:00,   22.263606753136497     
 15:37:00,   22.058788596778140     
 15:38:00,   22.058788596778140     
 15:39:00,   22.161197674957322     
 15:40:00,   22.058788596778140     
 15:41:00,   21.956379518598965     
 15:42:00,   22.058788596778140     
 15:43:00,   21.956379518598965     
 15:44:00,   22.161197674957322     
 15:45:00,   22.058788596778140     
 15:46:00,   22.058788596778140     
 15:47:00,   22.161197674957322     
 15:48:00,   22.161197674957322     
 15:49:00,   22.263606753136497     
 15:50:00,   22.263606753136497     
 15:51:00,   22.161197674957322     
 15:52:00,   22.161197674957322     
 15:53:00,   22.058788596778140     
 15:54:00,   22.058788596778140     
 15:55:00,   21.956379518598965     
 15:56:00,   21.853970440419783     
 15:57:00,   21.956379518598965     
 15:58:00,   22.058788596778140     
 15:59:00,   21.956379518598965     
 16:00:00,   21.853970440419783     
 16:01:00,   21.853970440419783     
 16:02:00,   21.853970440419783     
 16:03:00,   21.751561362240604     
 16:04:00,   21.751561362240604     
 16:05:00,   21.751561362240604     
 16:06:00,   21.546743205882247     
 16:07:00,   21.444334127703073     
 16:08:00,   21.444334127703073     
 16:09:00,   21.546743205882247     
 16:10:00,   21.444334127703073     
 16:11:00,   21.341925049523891     
 16:12:00,   21.341925049523891     
 16:13:00,   21.341925049523891     
 16:14:00,   21.341925049523891     
 16:15:00,   21.444334127703073     
 16:16:00,   21.341925049523891     
 16:17:00,   21.239515971344712     
 16:18:00,   21.239515971344712     
 16:19:00,   21.137106893165537     
 16:20:00,   21.239515971344712     
 16:21:00,   21.341925049523891     
 16:22:00,   21.341925049523891     
 16:23:00,   21.239515971344712     
 16:24:00,   21.341925049523891     
 16:25:00,   21.137106893165537     
 16:26:00,   21.034697814986355     
 16:27:00,   21.034697814986355     
 16:28:00,   20.932288736807180     
 16:29:00,   20.932288736807180     
 16:30:00,   21.034697814986355     
 16:31:00,   20.932288736807180     
 16:32:00,   20.829879658628002     
 16:33:00,   20.727470580448820     
 16:34:00,   20.829879658628002     
 16:35:00,   20.727470580448820     
 16:36:00,   20.727470580448820     
 16:37:00,   20.829879658628002     
 16:38:00,   20.727470580448820     
 16:39:00,   20.625061502269645     
 16:40:00,   20.625061502269645     
 16:41:00,   20.625061502269645     
 16:42:00,   20.727470580448820     
 16:43:00,   20.625061502269645     
 16:44:00,   20.727470580448820     
 16:45:00,   20.625061502269645     
 16:46:00,   20.522652424090463     
 16:47:00,   20.522652424090463     
 16:48:00,   20.420243345911288     
 16:49:00,   20.317834267732110     
 16:50:00,   20.317834267732110     
 16:51:00,   20.215425189552928     
 16:52:00,   20.113016111373753     
 16:53:00,   20.113016111373753     
 16:54:00,   20.113016111373753     
 16:55:00,   20.113016111373753     
 16:56:00,   20.010607033194571     
 16:57:00,   20.010607033194571     
 16:58:00,   20.113016111373753     
 16:59:00,   20.010607033194571     
 17:00:00,   20.113016111373753     
